W4EDP Weather Reports


time (UTC)temp
C
wind
direction
speed
KPH
gust
KPH
rain 1hr
cm
rain 24hr
cm
rain mn
cm
humidity
%
barometer
mb
20260906133138 24 146 0.0 0.0 0.00 0.08 0.00 73 1010.7
20260906132138 24 128 0.0 0.0 0.00 0.08 0.00 72 1010.7
20260906131121 23 90 0.0 0.0 0.00 0.08 0.00 77 1010.7
20260906130050 24 90 0.0 0.0 0.00 0.08 0.00 73 1010.7
20260906125039 23 190 0.0 0.0 0.00 0.08 0.00 79 1010.7
20260906121738 22 190 0.0 0.0 0.00 0.08 0.00 82 1010.6
20260906120706 22 293 0.0 0.0 0.00 0.08 0.00 81 1010.3
20260906115648 23 314 0.0 0.0 0.00 0.08 0.00 78 1010.1
20260906114655 23 314 0.0 0.0 0.00 0.08 0.00 77 1010.1
20260906112525 23 313 0.0 0.0 0.00 0.08 0.00 78 1009.8
20260906111532 22 0 0.0 0.0 0.00 0.08 0.00 80 1009.8
20260906110517 23 336 0.0 0.0 0.00 0.08 0.00 79 1009.5
20260906105540 22 336 0.0 0.0 0.00 0.08 0.00 81 1009.4
20260906103351 23 342 0.0 0.0 0.00 0.08 0.00 80 1009.3
20260906100139 23 342 0.0 0.0 0.00 0.08 0.00 78 1009.3
20260906095148 23 355 0.0 0.0 0.00 0.08 0.00 80 1009.6
20260906094114 23 42 0.0 0.0 0.00 0.08 0.00 81 1009.8
20260906093050 23 42 0.0 0.0 0.00 0.08 0.00 80 1009.8
20260906090855 23 85 0.0 0.0 0.00 0.08 0.00 79 1010.1
20260906085841 23 19 0.0 0.0 0.00 0.08 0.00 80 1010.1
20260906084812 23 0 0.0 0.0 0.00 0.08 0.00 81 1010.1
20260906083809 23 347 0.0 0.0 0.00 0.08 0.00 79 1009.9
20260906082752 23 101 0.0 0.0 0.00 0.08 0.00 79 1009.9
20260906081722 23 351 0.0 0.0 0.00 0.08 0.00 81 1009.9
20260906080709 23 114 0.0 0.0 0.00 0.08 0.00 80 1009.4
20260906075706 23 205 0.0 0.0 0.00 0.08 0.00 81 1009.3
20260906074633 23 88 0.0 0.0 0.00 0.08 0.00 80 1009.3
20260906073655 23 34 0.0 0.0 0.00 0.08 0.00 79 1009.5
20260906071556 22 136 0.0 0.0 0.00 0.08 0.00 83 1009.6
20260906070602 23 123 0.0 1.6 0.00 0.08 0.00 83 1010.0
20260906065557 23 157 0.0 0.0 0.00 0.08 0.00 83 1009.8
20260906064611 23 304 0.0 0.0 0.00 0.08 0.00 84 1009.8
20260906061309 25 112 0.0 0.0 0.00 0.08 0.00 73 1009.8
20260906060301 25 109 0.0 0.0 0.00 0.08 0.00 71 1009.8
20260906055312 25 109 0.0 0.0 0.00 0.08 0.00 72 1009.7
20260906054253 25 107 0.0 0.0 0.00 0.08 0.00 72 1009.7
20260906053220 25 107 0.0 0.0 0.00 0.08 0.00 74 1009.7
20260906051105 26 106 0.0 0.0 0.00 0.08 0.00 68 1009.8
20260906045005 26 97 0.0 0.0 0.00 0.08 0.00 67 1010.2
20260906043931 26 82 0.0 0.0 0.00 0.08 0.00 67 1010.3
20260906042900 26 82 0.0 0.0 0.00 0.08 0.00 66 1010.3
20260906041839 26 82 0.0 0.0 0.00 0.08 0.00 67 1010.3
20260906040834 26 82 0.0 0.0 0.00 0.08 0.00 67 1010.3
20260906034721 27 82 0.0 0.0 0.00 0.08 0.08 63 1010.3
20260906033738 27 82 0.0 0.0 0.00 0.08 0.08 62 1010.3
20260906032749 27 82 0.0 0.0 0.00 0.08 0.08 66 1010.3
20260906031715 26 82 0.0 0.0 0.00 0.08 0.08 70 1010.3
20260906030657 26 82 0.0 0.0 0.00 0.08 0.08 70 1010.3
20260906025718 26 82 0.0 0.0 0.00 0.08 0.08 71 1010.2
20260906023529 25 82 0.0 0.0 0.00 0.08 0.08 72 1009.9
20260906022537 25 82 0.0 0.0 0.00 0.08 0.08 72 1010.0
20260906020445 26 82 0.0 0.0 0.00 0.08 0.08 69 1009.7
20260906015416 27 82 0.0 0.0 0.00 0.08 0.08 68 1009.6
20260906014357 27 82 0.0 0.0 0.00 0.08 0.08 66 1009.6
20260906013327 27 82 0.0 0.0 0.00 0.08 0.08 64 1009.6
20260906011221 26 82 0.0 0.0 0.00 0.08 0.08 68 1009.2
20260906010149 26 82 0.0 0.0 0.00 0.08 0.08 70 1009.2
20260906005155 27 82 0.0 0.0 0.00 0.08 0.08 66 1009.1
20260906004212 27 82 0.0 0.0 0.00 0.08 0.08 66 1009.0
20260906003157 26 82 0.0 0.0 0.00 0.08 0.08 67 1009.0
20260906002205 26 82 0.0 0.0 0.00 0.08 0.08 67 1009.0
20260906001136 26 82 0.0 0.0 0.00 0.08 0.08 68 1009.0
20260906000158 27 82 0.0 0.0 0.00 0.08 0.08 65 1009.0
20260905235207 27 82 0.0 0.0 0.00 0.08 0.08 67 1009.3
20260905233018 26 82 0.0 0.0 0.00 0.08 0.08 67 1009.3
20260905231952 26 82 0.0 0.0 0.00 0.08 0.08 67 1009.0
20260905230936 27 82 0.0 0.0 0.00 0.08 0.08 67 1008.8
20260905224747 27 68 0.0 0.0 0.00 0.08 0.08 67 1008.7
20260905223712 28 67 0.0 0.0 0.00 0.08 0.08 64 1008.6
20260905222720 27 96 0.0 0.0 0.00 0.08 0.08 68 1008.7
20260905221658 27 94 0.0 0.0 0.00 0.08 0.08 65 1008.7
20260905215523 29 111 0.0 0.0 0.00 0.08 0.08 66 1009.4
20260905213412 28 74 0.0 0.0 0.00 0.08 0.08 71 1009.4
20260905212357 28 80 0.0 0.0 0.00 0.08 0.08 69 1009.3
20260905211331 28 80 0.0 0.0 0.00 0.08 0.08 68 1009.2
20260905210356 28 120 0.0 0.0 0.00 0.08 0.08 65 1009.2
20260905205405 30 123 0.0 0.0 0.00 0.08 0.08 64 1009.2
20260905203255 31 132 0.0 0.0 0.00 0.08 0.08 63 1009.1
20260905202251 31 342 0.0 0.0 0.00 0.08 0.08 59 1009.4
20260905201251 31 341 0.0 0.0 0.00 0.08 0.08 67 1009.5
20260905200240 30 341 0.0 0.0 0.00 0.08 0.08 68 1009.5
20260905195306 29 341 0.0 0.0 0.00 0.08 0.08 70 1009.9
20260905194229 28 341 0.0 0.0 0.00 0.08 0.08 74 1009.8
20260905193228 28 341 0.0 0.0 0.00 0.08 0.08 77 1009.8
20260905191100 26 342 0.0 0.0 0.10 0.08 0.08 82 1010.0
20260905190028 26 344 0.0 0.0 0.20 0.08 0.08 82 1010.0
20260905185037 27 336 0.0 0.0 0.38 0.05 0.05 76 1010.4
20260905184037 31 125 0.0 0.0 0.00 0.00 0.00 55 1010.4
20260905181916 30 343 0.0 0.0 0.00 0.00 0.00 68 1010.4
20260905175743 32 338 0.0 0.0 0.00 0.00 0.00 60 1010.5
20260905173601 31 117 0.0 0.0 0.00 0.00 0.00 58 1010.8
20260905172607 31 186 0.0 0.0 0.00 0.00 0.00 58 1011.0
20260905171556 31 262 0.0 0.0 0.00 0.00 0.00 57 1011.0
20260905170549 31 150 0.0 0.0 0.00 0.00 0.00 59 1011.0
20260905165603 31 105 0.0 0.0 0.00 0.00 0.00 62 1011.2
20260905163446 30 85 0.0 0.0 0.00 0.00 0.00 68 1011.5
20260905162452 30 330 0.0 0.0 0.00 0.00 0.00 64 1011.6
20260905161450 29 160 0.0 0.0 0.00 0.00 0.00 69 1011.6
20260905160421 29 161 0.0 0.0 0.00 0.00 0.00 69 1011.6
20260905154857 30 199 0.0 0.0 0.00 0.00 0.00 68 1011.7
20260905154656 30 199 0.0 0.0 0.00 0.00 0.00 67 1011.7
20260905154411 29 0 0.0 0.0 0.00 0.00 0.00 69 1011.7
20260905152223 30 304 0.0 0.0 0.00 0.00 0.00 66 1011.8
20260905150036 28 263 0.0 0.0 0.00 0.00 0.00 69 1011.8
20260905145024 28 267 0.0 0.0 0.00 0.00 0.00 68 1012.0
20260905144001 28 247 0.0 0.0 0.00 0.00 0.00 69 1012.0
20260905141815 28 291 0.0 0.0 0.00 0.00 0.00 67 1012.1
20260905140755 27 291 0.0 0.0 0.00 0.00 0.00 69 1012.1
20260905135720 27 296 0.0 0.0 0.00 0.00 0.00 69 1012.1
20260905134659 27 296 0.0 0.0 0.00 0.00 0.00 69 1012.1